Volver al catálogo

STARLINK-11237

ActivoComunicacionesVLEO
NORAD 60934·PAYLOAD·🇺🇸 United States

Lanzado Aug 31, 2024 desde Vandenberg Space Force Base

Loading…

Próximos Pases (próximas 24 horas)

TLE

ActualizadoSource: CelesTrak SupGP

Época: Sep 14, 2026, 22:39 UTC

1 60934C 24155L   26257.94423611 -.00061372  00000+0 -50551-3 0  2577
2 60934  53.1562 127.9751 0001183  94.3777 182.6770 15.69741616    16

Sigue STARLINK-11237 en tiempo real con AllMySat

Download on the App Store